{"data":{"norad_id":55370,"intl_designator":"2023-013AR","name":"STARLINK-5027","alt_names":[],"object_type":"PAYLOAD","status":"ACTIVE","operator":null,"country":"US","launch_date":"2023-01-26","launch_site_code":"AFETR","launch_vehicle":null,"mission":null,"orbit_class":"UNKNOWN","rcs_meters":null,"size_class":null,"mass_kg":null,"dimensions":null,"purposes":["comms"],"wikipedia_slug":null,"has_3d_model":false,"image_url":null,"decayed_at":null,"tle_current":{"epoch":"2026-05-24T23:43:07.773024Z","epoch_age_seconds":69431,"freshness":"FRESH","line1":"1 55370U 23013AR  26144.98828441 -.00001989  00000+0 -62804-4 0  9992","line2":"2 55370  43.0032 250.5050 0002049 271.2317  88.8300 15.27560178183134","mean_motion":15.27560178,"eccentricity":0.0002049,"inclination_deg":43.0032,"raan_deg":250.505,"arg_perigee_deg":271.2317,"mean_anomaly_deg":88.83,"bstar":-6.2804e-5,"rev_number":18313,"period_min":94.267971942379,"perigee_km":481.70258168752,"apogee_km":484.51432007329,"semimajor_km":6861.2454508804,"source":"CELESTRAK","updated_at":"2026-05-25T13:38:17.767840Z"}}}